Thomson, GA

5:11 PM EST on December 08, 2016 (GMT -0500)
Thomson-McDuffie County

Weather History for KHQU - January, 2014

Change the Weather History Date:

Saturday, January 25, 2014

  Actual Average (KDNL) Record (KDNL)
Temperature  
Mean Temperature 30 °F -  
Max Temperature 50 °F 53 °F 71 °F (1999)
Min Temperature 11 °F 36 °F 21 °F (2014)
Degree Days  
Heating Degree Days 34    
Moisture  
Dew Point 16 °F    
Average Humidity 53    
Maximum Humidity 95    
Minimum Humidity 31    
Precipitation  
Precipitation 0.00 in - - ()
Sea Level Pressure  
Sea Level Pressure 30.06 in    
Wind  
Wind Speed 4 mph (SW)    
Max Wind Speed 16 mph    
Max Gust Speed 29 mph    
Visibility 10 miles    
Events      
Averages and records for this station are not official NWS values.
T = Trace of Precipitation, MM = Missing Value Source: NWS Daily Summary

Daily Weather History Graph

Daily Weather History Graph

Search for Another Location

Airport or City:

Trip Planner

Search our weather history database for the weather conditions in past years. The results will help you decide how hot, cold, wet, or windy it might be!

Date:

Astronomy

Jan. 25, 2014 Rise Set
Actual Time 7:30 AM EST 5:54 PM EST
Civil Twilight 7:04 AM EST 6:21 PM EST
Nautical Twilight 6:33 AM EST 6:51 PM EST
Astronomical Twilight 6:04 AM EST 7:20 PM EST
Moon 2:02 AM EST (1/25) 12:53 PM EST (1/25)
Length of Visible Light 11h 17m
Length of Day
10h 24m
Waning Crescent, 34% of the Moon is Illuminated
Jan 25
Waning Crescent
Jan 30
New
Feb 6
First Quarter
Feb 14
Full
Feb 22
Last Quarter

Hourly Weather History & Observations

Time (EST) Temp. Windchill Dew Point Humidity Pressure Visibility Wind Dir Wind Speed Gust Speed Precip Events Conditions
12:15 AM 14.0 °F - 11.3 °F 89% 30.34 in 10.0 mi Calm Calm - N/A   Clear
12:35 AM 13.1 °F - 10.9 °F 91% 30.33 in 10.0 mi Calm Calm - N/A   Clear
12:55 AM 13.1 °F - 10.8 °F 90% 30.33 in 10.0 mi Calm Calm - N/A   Clear
1:15 AM 12.2 °F - 10.0 °F 91% 30.32 in 10.0 mi Calm Calm - N/A   Clear
1:35 AM 12.2 °F - 9.7 °F 90% 30.30 in 10.0 mi Calm Calm - N/A   Clear
1:55 AM 12.7 °F - 10.8 °F 92% 30.29 in 10.0 mi Calm Calm - N/A   Clear
2:15 AM 11.5 °F - 9.7 °F 92% 30.27 in 10.0 mi Calm Calm - N/A   Clear
2:35 AM 12.7 °F 6.7 °F 11.7 °F 95% 30.26 in 10.0 mi SW 3.5 mph - N/A   Clear
2:55 AM 13.8 °F 8.0 °F 10.2 °F 86% 30.24 in 10.0 mi SSW 3.5 mph - N/A   Clear
3:15 AM 17.6 °F 12.3 °F 6.8 °F 63% 30.24 in 10.0 mi SSW 3.5 mph - N/A   Clear
3:35 AM 17.2 °F - 7.0 °F 64% 30.24 in 10.0 mi Calm Calm - N/A   Clear
3:55 AM 16.2 °F - 7.3 °F 68% 30.22 in 10.0 mi Calm Calm - N/A   Clear
4:15 AM 14.9 °F - 8.1 °F 74% 30.22 in 10.0 mi Calm Calm - N/A   Clear
4:35 AM 14.7 °F - 8.6 °F 77% 30.21 in 10.0 mi Calm Calm - N/A   Clear
4:55 AM 14.2 °F 8.4 °F 8.2 °F 77% 30.20 in 10.0 mi SSW 3.5 mph - N/A   Clear
5:15 AM 14.9 °F 9.2 °F 7.7 °F 73% 30.19 in 10.0 mi South 3.5 mph - N/A   Clear
5:35 AM 16.9 °F 11.5 °F 7.2 °F 66% 30.18 in 10.0 mi South 3.5 mph - N/A   Clear
5:55 AM 18.1 °F 11.3 °F 6.6 °F 61% 30.18 in 10.0 mi SSW 4.6 mph - N/A   Clear
6:15 AM 18.7 °F 13.5 °F 7.0 °F 60% 30.18 in 10.0 mi SSW 3.5 mph - N/A   Clear
6:35 AM 19.0 °F 12.3 °F 7.3 °F 60% 30.17 in 10.0 mi South 4.6 mph - N/A   Clear
6:55 AM 19.4 °F 12.8 °F 7.9 °F 61% 30.16 in 10.0 mi South 4.6 mph - N/A   Clear
7:15 AM 19.9 °F 12.1 °F 8.2 °F 61% 30.15 in 10.0 mi South 5.8 mph - N/A   Clear
7:35 AM 19.9 °F 13.4 °F 8.6 °F 61% 30.14 in 10.0 mi South 4.6 mph - N/A   Clear
7:55 AM 21.7 °F - 9.1 °F 58% 30.14 in 10.0 mi Calm Calm - N/A   Clear
8:15 AM 23.7 °F 17.8 °F 10.9 °F 58% 30.13 in 10.0 mi SSW 4.6 mph - N/A   Clear
8:35 AM 24.8 °F 17.9 °F 11.5 °F 57% 30.13 in 10.0 mi SW 5.8 mph - N/A   Scattered Clouds
8:55 AM 27.0 °F 20.5 °F 12.0 °F 53% 30.13 in 10.0 mi SW 5.8 mph - N/A   Clear
9:15 AM 29.1 °F 21.3 °F 12.7 °F 50% 30.10 in 10.0 mi SSW 8.1 mph 17.3 mph N/A   Clear
9:35 AM 30.9 °F 24.3 °F 11.8 °F 45% 30.08 in 10.0 mi SSW 6.9 mph - N/A   Clear
9:55 AM 32.4 °F 24.0 °F 13.3 °F 45% 30.07 in 10.0 mi SW 10.4 mph 23.0 mph N/A   Clear
10:15 AM 33.8 °F 24.3 °F 16.3 °F 49% 30.06 in 10.0 mi WSW 13.8 mph 21.9 mph N/A   Scattered Clouds
10:35 AM 35.2 °F 26.6 °F 16.3 °F 46% 30.06 in 10.0 mi SW 12.7 mph 25.3 mph N/A   Scattered Clouds
10:55 AM 36.7 °F 29.9 °F 15.1 °F 41% 30.03 in 10.0 mi SSW 9.2 mph 17.3 mph N/A   Clear
11:15 AM 39.4 °F 32.7 °F 15.4 °F 38% 30.01 in 10.0 mi SSW 10.4 mph 18.4 mph N/A   Mostly Cloudy
11:35 AM 40.1 °F 35.3 °F 13.8 °F 34% 30.01 in 10.0 mi WSW 6.9 mph 18.4 mph N/A   Overcast
11:55 AM 42.1 °F 34.2 °F 14.2 °F 32% 29.99 in 10.0 mi SW 16.1 mph 24.2 mph N/A   Scattered Clouds
12:15 PM 42.3 °F 35.5 °F 14.7 °F 33% 29.97 in 10.0 mi SSW 12.7 mph 17.3 mph N/A   Clear
12:35 PM 45.1 °F 39.5 °F 16.7 °F 32% 29.94 in 10.0 mi SW 11.5 mph 23.0 mph N/A   Clear
12:55 PM 46.4 °F 41.9 °F 17.4 °F 31% 29.93 in 10.0 mi SW 9.2 mph 23.0 mph N/A   Mostly Cloudy
1:15 PM 47.1 °F - 18.3 °F 32% 29.91 in 10.0 mi SW 11.5 mph 27.6 mph N/A   Overcast
1:35 PM 48.6 °F - 19.8 °F 32% 29.90 in 10.0 mi SW 15.0 mph 23.0 mph N/A   Overcast
1:55 PM 49.3 °F - 20.5 °F 32% 29.88 in 10.0 mi SSW 15.0 mph 28.8 mph N/A   Overcast
2:15 PM 49.8 °F - 21.0 °F 32% 29.87 in 10.0 mi SW 10.4 mph 25.3 mph N/A   Overcast
2:35 PM 50.0 °F - 21.4 °F 32% 29.87 in 10.0 mi WSW 11.5 mph 27.6 mph N/A   Overcast
2:55 PM 49.5 °F - 21.0 °F 33% 29.86 in 10.0 mi SW 13.8 mph 19.6 mph N/A   Overcast
3:15 PM 49.5 °F - 21.6 °F 33% 29.86 in 10.0 mi SW 10.4 mph 21.9 mph N/A   Overcast
3:35 PM 49.5 °F - 21.4 °F 33% 29.86 in 10.0 mi SW 12.7 mph 24.2 mph N/A   Overcast
3:55 PM 49.5 °F - 21.9 °F 34% 29.87 in 10.0 mi WSW 6.9 mph 18.4 mph N/A   Overcast
4:15 PM 49.8 °F - 22.1 °F 34% 29.87 in 10.0 mi WSW 11.5 mph 21.9 mph N/A   Overcast
4:35 PM 50.0 °F - 22.3 °F 34% 29.86 in 10.0 mi WSW 10.4 mph 23.0 mph N/A   Mostly Cloudy
4:55 PM 50.0 °F - 22.5 °F 34% 29.87 in 10.0 mi SW 8.1 mph 16.1 mph N/A   Scattered Clouds
5:15 PM 49.1 °F - 22.1 °F 35% 29.89 in 10.0 mi West 9.2 mph 19.6 mph N/A   Scattered Clouds
5:35 PM 48.6 °F - 22.5 °F 36% 29.90 in 10.0 mi West 8.1 mph 18.4 mph N/A   Mostly Cloudy
5:55 PM 48.4 °F - 22.1 °F 36% 29.91 in 10.0 mi West 9.2 mph - N/A   Overcast
6:15 PM 47.7 °F - 22.1 °F 37% 29.92 in 10.0 mi West 8.1 mph - N/A   Overcast
6:35 PM 46.9 °F - 21.9 °F 37% 29.93 in 10.0 mi West 8.1 mph - N/A   Overcast
6:55 PM 46.6 °F - 21.9 °F 38% 29.94 in 10.0 mi West 6.9 mph - N/A   Overcast
7:15 PM 45.5 °F 42.5 °F 21.7 °F 39% 29.96 in 10.0 mi West 5.8 mph - N/A   Mostly Cloudy
7:35 PM 43.7 °F 40.3 °F 21.4 °F 41% 29.96 in 10.0 mi West 5.8 mph - N/A   Mostly Cloudy
7:55 PM 43.0 °F 40.3 °F 21.4 °F 42% 29.98 in 10.0 mi West 4.6 mph - N/A   Mostly Cloudy
8:15 PM 42.1 °F 38.4 °F 21.0 °F 43% 29.98 in 10.0 mi West 5.8 mph - N/A   Scattered Clouds
8:35 PM 41.4 °F 38.4 °F 20.8 °F 44% 29.99 in 10.0 mi West 4.6 mph - N/A   Clear
8:55 PM 41.0 °F 37.1 °F 21.0 °F 45% 29.99 in 10.0 mi West 5.8 mph - N/A   Clear
9:15 PM 39.0 °F 34.8 °F 20.8 °F 48% 30.00 in 10.0 mi West 5.8 mph - N/A   Clear
10:15 PM 36.3 °F 31.6 °F 21.0 °F 54% 30.01 in 10.0 mi WSW 5.8 mph - N/A   Clear
10:35 PM 36.9 °F 32.2 °F 21.2 °F 53% 30.01 in 10.0 mi WSW 5.8 mph - N/A   Clear
10:55 PM 36.9 °F 32.2 °F 21.2 °F 53% 30.01 in 10.0 mi WSW 5.8 mph - N/A   Clear
11:15 PM 36.1 °F 30.6 °F 21.7 °F 56% 30.01 in 10.0 mi WSW 6.9 mph - N/A   Clear
11:35 PM 37.0 °F 31.6 °F 22.1 °F 55% 30.01 in 10.0 mi WSW 6.9 mph - N/A   Clear
11:55 PM 36.7 °F 32.0 °F 22.1 °F 56% 30.01 in 10.0 mi SW 5.8 mph - N/A   Clear